Regional Weather Roundup
Issued by NWS

Home | Current Version | Previous Version | Text Only | Print | Product List | Glossary Off
Versions: 1 2 3 4 5 6 7 8 9 10 11 12 13 14 15 16 17 18 19 20 21 22 23 24 25 26 27 28 29 30 31 32 33 34 35 36 37 38 39 40 41 42 43 44 45 46 47 48 49 50

341
ASUS45 KABQ 292110
RWRNM
NEW MEXICO REGIONAL WEATHER ROUNDUP
NATIONAL WEATHER SERVICE ALBUQUERQUE NM
300 PM MDT WED MAR 29 2017

NOTE: "FAIR" MEANS FEW OR NO CLOUDS BELOW 12,000 FEET AGL WITH NO
       SIGNIFICANT WEATHER OR OBSTRUCTIONS TO VISION.

      THIS PRODUCT IS RELEASED AS TWO VERSIONS.  ONE VERSION NEAR
      THE TOP OF THE HOUR CONTAINING PRELIMINARY DATA FROM ALBUQUERQUE
      AND OTHER STATIONS.  A FINAL VERSION WITH ADDITIONAL DATA IS
      ISSUED ABOUT 10 MINUTES AFTER THE HOUR.

NMZ501-503-504-510>518-292200-
NORTHWEST PLATEAU/NORTHCENTRAL MOUNTAINS

CITY           SKY/WX    TMP DP  RH WIND       PRES   REMARKS
FARMINGTON     FAIR      65  19  17 W14G23    29.93F
LOS ALAMOS     CLOUDY    50  29  44 N12G22    30.01F
SANTA FE       PTSUNNY   54  30  40 N13G23    29.98F
TAOS             N/A     50  27  40 N16       30.00S
ANGEL FIRE     PTSUNNY   41  25  53 N10G18    30.02R

$$
NMZ402-403-502-505>509-292200-
WESTCENTRAL MOUNTAINS/SOUTHWEST MOUNTAINS

CITY           SKY/WX    TMP DP  RH WIND       PRES   REMARKS
GALLUP         PTSUNNY   59  26  28 VRB3      30.03F
GRANTS         CLOUDY    55  28  35 NW10G18   30.04S
SILVER CITY    CLOUDY    58  29  32 CALM      30.02S

$$
NMZ407-409-411-412-292200-
SOUTHERN DESERTS

CITY           SKY/WX    TMP DP  RH WIND       PRES   REMARKS
DEMING         FAIR      67  31  26 NE8       29.99F
LAS CRUCES     FAIR      64  30  27 N3        29.99F
HOLLOMAN AFB   FAIR      58  38  46 NW6       30.03S
ALAMOGORDO       N/A    N/A N/A N/A MISG        N/A
T OR C         PTSUNNY   59  35  40 E8        29.99S

$$
NMZ519>523-292200-
CENTRAL VALLEYS/CENTRAL HIGHLANDS

CITY           SKY/WX    TMP DP  RH WIND       PRES   REMARKS
ALBUQUERQUE    PTSUNNY   59  34  39 N10       29.97F
DOUBLE EAGLE   PTSUNNY   59  32  36 NW13G21   29.99F
MORIARTY ARPT  FAIR      58  30  33 NW18G29   29.99S
CLINES CORNERS CLOUDY    48  33  56 SE6       29.99F
BELEN          PTSUNNY   60  34  37 N12G17    29.98S
SOCORRO        FAIR      62  33  34 N10G16    29.98F

$$
NMZ524>526-539-540-292200-
SOUTHCENTRAL MOUNTAINS

CITY           SKY/WX    TMP DP  RH WIND       PRES   REMARKS
RUIDOSO          N/A     41  34  75 W7        30.06S

$$
NMZ527>531-292200-
NORTHEAST HIGHLANDS/NORTHEAST PLAINS

CITY           SKY/WX    TMP DP  RH WIND       PRES   REMARKS
LAS VEGAS      CLOUDY    49  28  44 E17G26    29.97F
RATON          CLOUDY    48  32  53 N17G29    29.98S
CLAYTON        CLOUDY    45  37  73 N23       29.96R

$$
NMZ532>537-292200-
EASTCENTRAL PLAINS

CITY           SKY/WX    TMP DP  RH WIND       PRES   REMARKS
TUCUMCARI      CLOUDY    52  39  61 NE20G25   29.95F
CANNON AFB     CLOUDY    46  45  93 N25       29.96R
CLOVIS AIRPORT CLOUDY    46  37  71 N30       29.97R

$$
NMZ028-029-538-292200-
SOUTHEAST PLAINS

CITY           SKY/WX    TMP DP  RH WIND       PRES   REMARKS
ROSWELL        LGT RAIN  56  39  53 N13         N/A
ARTESIA        PTSUNNY   55  39  54 NW15G26   30.01S
CARLSBAD       PTSUNNY   55  37  50 N26G36    30.01S
HOBBS          CLOUDY    48  45  87 NW17      29.97S


$$




USA.gov is the U.S. government's official web portal to all federal, state and local government web resources and services.